EHI
0 0 0 0 0 0 0 0 0 0 0 0 0 0 0 0 0 0 0 0 0 0 0 1 4 8 7 3 0 0 0 0 0 0 0 0 0 0 0 0 0 0 0 0 0 0 0 0 0
0 0 0 0 0 0 0 0 0 0 0 0 0 0 0 0 0 0 0 0 0 0 0 1 4 7 6 3 1 0 0 0 0 0 0 0 0 0 0 0 0 0 0 0 0 0 0 0 0
0 0 0 0 0 0 0 0 0 0 0 0 0 0 0 0 0 0 0 0 0 0 0 1 3 5 5 5 3 1 0 0 0 0 0 0 0 0 0 0 0 0 0 0 0 0 0 0 0
0 0 0 0 0 0 0 0 0 0 0 0 0 0 0 0 0 1 1 0 0 0 0 1 2 3 4 5 4 2 1 0 0 0 0 0 0 0 0 0 0 0 0 0 0 0 0 0 0
0 0 0 0 0 0 0 0 0 0 0 0 0 0 0 0 1 2 1 0 0 0 0 0 1 3 3 3 3 2 1 0 0 0 0 0 0 0 0 0 0 0 0 0 0 0 0 0 0
0 0 0 0 0 0 0 0 0 0 1 0 0 0 0 0 2 2 1 0 0 0 0 0 1 2 3 2 1 1 1 0 0 0 0 0 0 0 0 0 0 0 0 0 0 0 0 0 0
0 0 0 0 0 0 0 0 0 0 0 0 0 0 0 0 1 1 1 0 0 0 0 0 0 1 2 2 1 1 0 0 0 0 0 0 0 0 0 0 0 0 0 0 0 0 0 0 0
0 0 0 0 0 0 0 0 0 0 0 0 0 0 0 0 0 0 0 0 1 1 1 0 0 0 1 1 1 0 0 0 0 0 0 0 0 0 0 0 0 0 0 0 0 0 0 0 0
0 0 0 0 0 0 0 0 0 0 0 0 1 3 5 6 4 1 1 2 3 3 2 1 0 0 0 0 0 0 0 0 0 0 1 0 0 0 0 0 0 0 0 0 0 0 0 0 0
0 0 0 0 0 0 0 0 0 0 0 1 5 12 17 15 9 4 2 3 5 4 2 1 0 0 0 0 0 0 0 0 0 0 0 0 0 0 0 0 0 0 0 0 0 0 0 0 0
0 0 0 0 0 0 0 0 0 1 0 3 13 26 29 21 11 6 3 3 4 3 2 1 1 1 0 0 0 0 0 0 0 0 0 0 0 0 0 0 0 0 0 0 0 0 0 0 0
0 0 0 0 0 0 0 0 0 0 1 7 21 33 32 21 12 7 4 2 1 2 3 3 3 2 0 0 0 0 0 0 0 0 0 0 0 0 0 0 0 0 0 0 0 0 0 0 0
0 0 0 0 0 0 0 0 0 0 4 13 26 33 29 20 13 8 5 3 2 4 5 5 5 3 1 1 0 0 0 1 1 0 0 0 0 0 0 0 0 0 0 0 0 0 0 0 0
0 0 0 0 0 0 1 0 0 2 8 18 26 28 24 18 13 9 7 5 4 6 7 7 6 4 2 2 1 1 1 3 3 1 1 0 0 0 0 0 0 0 0 0 0 0 0 0 0
0 0 0 0 0 0 0 0 2 7 13 18 20 20 17 13 10 8 7 6 6 7 7 6 6 5 4 3 2 2 3 5 5 3 1 0 0 0 0 0 0 0 0 0 0 0 0 0 0
0 0 0 0 0 0 0 0 4 12 16 16 14 13 10 8 7 7 7 6 7 8 6 5 5 5 4 3 3 3 4 6 5 3 1 0 0 0 0 0 0 0 0 0 0 0 0 0 0
0 0 0 0 0 0 0 0 5 13 17 14 12 9 8 8 8 9 9 8 8 9 8 6 5 5 4 3 3 2 3 3 2 1 0 0 0 0 0 0 0 0 0 0 0 0 0 0 0
0 0 0 0 0 0 0 0 4 12 16 15 13 11 11 12 13 15 15 12 13 15 15 12 9 7 6 4 2 1 1 1 0 0 0 0 0 0 0 0 0 0 0 1 1 1 0 0 0
0 0 0 0 0 0 0 0 3 9 15 18 17 15 16 17 19 23 22 19 21 24 25 22 18 14 10 7 4 1 0 0 0 0 0 0 0 0 0 0 0 0 0 1 1 1 0 0 0
0 0 0 0 0 0 0 0 2 7 14 19 20 19 18 19 22 26 26 25 27 31 31 28 23 19 15 11 7 4 2 1 1 1 1 0 0 0 0 0 1 1 0 1 1 0 0 0 0
0 0 0 0 0 0 0 0 1 4 11 17 20 19 19 20 22 27 30 30 30 32 31 28 23 18 14 11 9 7 4 3 3 3 2 1 1 0 0 0 1 2 1 1 0 0 0 0 0
0 0 0 0 0 0 0 0 0 2 7 14 18 19 20 22 25 29 33 35 34 32 30 25 20 16 12 10 10 9 7 5 4 3 2 2 2 1 1 0 1 2 3 2 1 1 1 1 1
0 0 0 0 0 0 0 0 0 1 5 12 16 17 20 27 32 32 33 34 34 31 29 24 20 17 13 12 13 12 9 6 4 3 2 2 2 2 1 0 1 3 5 4 3 2 2 2 2
0 0 0 0 0 0 0 0 0 0 3 8 12 15 21 30 36 34 29 30 31 30 28 25 22 19 16 14 15 14 12 8 5 4 4 3 3 2 1 1 2 4 5 4 3 2 2 2 3
0 0 0 0 0 0 0 0 0 0 1 4 8 13 20 30 35 32 27 28 30 30 29 27 24 20 16 15 16 14 12 10 7 6 6 6 6 4 2 2 4 5 5 4 3 2 1 1 2
0 0 0 0 0 0 0 0 0 0 1 4 9 14 21 28 31 28 26 28 29 29 29 29 26 20 16 15 15 14 12 10 9 8 8 8 7 6 3 3 4 5 4 3 3 2 1 1 1
0 0 0 0 0 0 0 0 0 0 1 5 12 17 22 26 28 26 25 26 25 24 26 30 28 21 17 16 16 14 11 10 10 9 9 9 8 6 4 4 4 3 3 2 2 2 1 0 0
0 0 0 0 0 0 0 0 0 0 2 7 14 18 22 27 29 29 26 25 23 21 24 28 27 21 16 14 14 13 11 10 11 10 9 8 7 4 3 3 3 2 1 1 1 1 0 0 0
0 0 0 0 0 0 0 0 0 0 3 9 14 17 22 29 31 29 28 28 26 24 25 24 21 15 11 10 10 10 9 10 10 9 8 8 6 3 2 3 3 3 1 0 0 0 0 0 0
0 0 0 0 0 0 0 0 0 0 3 9 13 16 22 30 30 28 30 31 29 27 25 21 14 10 7 6 7 8 8 9 9 8 8 8 6 3 2 3 4 3 1 0 0 0 0 0 0
Wind_Speed
2 2 3 2 6 7 4 3 2 3 4 4 6 7 7 5 2 4 2 6 7 5 4 7 10 11 11 11 12 12 13 13 13 13 13 13 13 13 14 14 14 14 15 15 15 15 14 15 15
1 2 2 5 7 5 3 2 3 3 4 5 6 7 7 5 4 7 4 5 7 6 4 6 10 10 10 11 11 12 12 12 12 12 12 12 12 13 13 13 13 14 14 14 15 14 14 14 14
1 1 4 6 5 3 2 0 5 5 4 3 5 5 5 4 5 4 4 8 7 5 4 5 10 10 10 10 10 11 11 11 11 11 11 11 12 12 13 13 13 13 14 14 14 14 13 13 13
2 4 6 7 4 0 3 3 5 5 4 5 5 6 5 4 5 6 9 9 7 5 3 5 10 10 10 10 9 10 10 10 11 10 10 11 11 11 12 12 12 12 13 13 13 13 12 12 11
4 5 8 5 3 2 2 3 2 4 3 4 5 6 4 4 9 11 9 9 7 5 3 4 9 9 9 9 9 9 9 10 10 10 10 10 10 10 11 11 11 11 12 12 12 11 11 10 10
5 6 6 2 2 2 2 2 3 5 5 5 5 5 3 4 9 9 8 7 5 5 3 4 9 9 9 9 9 9 9 9 9 9 9 9 9 10 10 10 10 10 10 10 10 10 9 9 8
5 5 4 2 1 1 2 2 3 4 5 4 5 6 3 4 6 8 7 6 5 4 3 2 3 5 8 8 8 8 8 8 8 8 9 9 9 9 9 8 9 9 9 9 9 8 8 8 7
5 6 4 1 2 1 3 3 3 5 4 5 5 7 6 6 8 8 7 6 4 3 3 3 3 3 3 4 7 8 8 8 8 7 8 8 7 7 7 7 7 7 7 7 7 7 7 7 7
4 6 2 2 4 3 4 4 3 3 6 3 3 5 7 14 13 10 7 5 4 4 2 2 3 3 3 2 4 5 6 6 6 5 7 6 3 3 3 4 6 6 6 6 5 5 6 6 5
5 4 3 4 4 4 5 5 5 5 4 3 6 8 14 14 13 12 10 9 8 6 4 3 3 3 2 2 3 2 2 3 3 3 3 3 2 2 2 2 3 4 4 4 4 4 5 5 3
3 3 3 2 3 5 5 4 3 7 4 6 11 15 17 15 11 10 10 9 8 7 6 5 4 2 2 1 2 1 1 2 2 2 3 2 2 1 2 1 2 2 2 2 3 3 2 2 2
2 1 1 1 3 4 5 4 4 5 5 7 14 18 17 15 13 12 11 9 6 6 6 5 5 3 2 1 2 2 1 1 1 1 2 2 1 1 1 1 1 1 1 1 1 1 2 2 1
2 2 2 2 4 5 5 3 3 1 4 12 14 15 15 14 11 8 7 7 6 7 6 5 5 5 4 3 2 2 2 2 1 1 1 2 1 1 0 0 0 0 0 0 0 1 1 1 1
0 1 2 3 4 3 5 2 3 2 8 13 14 14 13 12 10 8 7 8 8 8 7 6 6 6 5 4 3 2 2 2 2 2 2 2 2 2 1 1 1 1 1 1 1 0 1 1 0
1 4 6 4 3 2 5 2 1 5 10 11 12 11 11 9 9 10 11 10 9 8 7 7 7 6 5 5 4 3 2 2 2 2 2 3 3 2 2 1 1 1 1 1 1 1 0 1 0
5 6 4 4 2 2 6 3 3 7 11 10 10 10 9 8 9 9 9 8 8 7 7 7 7 7 6 5 4 2 2 3 3 2 2 3 4 3 2 2 2 2 1 1 1 1 0 1 1
6 3 1 4 1 2 3 3 3 7 10 10 9 9 8 7 7 7 8 8 8 8 8 7 6 7 6 5 3 3 2 2 2 2 3 3 4 4 3 3 3 2 1 1 2 1 1 1 1
1 1 0 3 2 2 2 3 2 7 8 9 7 7 7 8 9 7 7 7 6 6 6 7 6 6 5 3 2 2 1 1 2 2 3 3 3 4 4 3 3 2 2 1 1 2 1 1 2
4 3 2 4 3 1 2 2 4 6 6 7 7 7 7 8 6 5 6 7 6 6 6 7 6 5 4 3 3 2 2 1 1 2 3 3 4 4 4 3 2 2 2 3 3 2 2 1 1
3 2 1 3 2 2 1 2 1 5 8 8 9 9 8 6 5 5 5 5 7 7 7 7 7 6 5 4 3 2 2 2 1 1 1 3 3 4 4 4 3 3 2 2 2 2 1 1 2
2 4 3 1 3 4 3 4 2 2 3 4 5 6 7 9 8 8 8 7 7 8 8 7 7 6 5 5 3 2 2 1 1 0 1 2 3 3 3 4 3 3 3 3 4 4 4 2 2
3 4 4 3 3 2 2 1 6 3 3 5 7 7 8 8 8 8 8 8 8 7 6 6 5 5 5 5 4 4 3 2 2 2 1 1 2 3 3 3 4 3 3 3 4 4 3 3 3
4 2 4 3 4 2 3 1 8 1 4 8 9 9 9 9 10 10 10 9 6 6 5 5 4 4 4 5 5 4 3 2 1 1 1 1 1 1 2 2 2 3 3 3 3 2 3 3 3
5 7 7 6 5 2 1 2 7 4 7 6 7 8 8 8 9 8 6 5 4 5 5 5 5 4 4 5 5 5 5 3 2 1 1 1 1 1 2 1 1 2 2 3 3 3 3 3 3
5 7 5 5 4 4 2 2 10 8 7 7 7 7 7 8 8 8 8 7 6 6 6 6 6 5 5 5 5 5 5 4 3 2 2 1 1 1 2 1 1 1 2 2 2 2 2 2 3
5 9 9 6 5 4 2 5 9 6 6 4 3 4 5 6 7 8 8 8 7 7 7 7 7 6 5 4 4 3 4 3 2 2 2 1 1 1 1 1 1 1 1 1 1 1 2 1 2
7 3 6 8 3 0 4 6 9 3 3 1 2 4 6 6 7 6 6 7 7 7 7 7 7 5 5 5 4 3 3 2 2 1 1 1 0 0 1 1 1 1 1 0 1 1 1 1 1
6 10 7 7 6 2 4 4 5 5 4 2 2 4 5 5 5 6 6 6 6 6 6 6 6 5 4 4 3 3 3 3 2 2 2 1 1 1 2 2 1 2 1 1 1 0 0 0 0
5 5 6 6 6 7 2 8 7 6 5 5 4 3 5 6 6 6 5 5 6 6 6 6 5 4 4 4 4 4 3 4 3 3 2 2 2 2 2 2 2 2 2 2 1 1 1 1 1
5 8 9 7 4 5 4 9 5 5 4 4 4 3 4 6 6 6 6 6 6 6 6 5 5 4 4 4 4 4 4 4 4 3 3 3 2 2 2 2 3 3 3 3 2 2 2 1 1
Wind_Direction
253 162 145 94 57 51 43 4 48 62 51 53 78 82 85 65 90 130 127 129 126 124 121 122 119 114 110 107 106 105 104 104 103 102 101 100 101 100 99 98 97 99 100 100 100 100 101 102 103
189 164 100 61 72 63 9 350 77 81 132 120 80 75 71 64 67 103 124 133 125 124 117 125 125 119 114 110 108 107 106 106 105 104 103 103 102 102 101 100 99 100 101 101 101 101 102 104 106
205 100 79 67 74 123 145 149 114 102 107 89 82 69 75 98 117 127 144 131 116 116 116 138 130 125 120 114 111 109 109 109 108 107 106 105 103 102 102 101 101 101 102 102 102 103 104 105 106
88 49 54 64 60 221 173 168 132 113 75 61 93 76 69 93 129 133 133 129 120 118 124 144 134 130 125 120 116 113 112 111 111 109 108 107 105 104 103 101 102 102 103 103 102 103 105 105 106
61 70 59 50 21 5 110 144 131 108 89 73 88 88 57 43 108 124 131 131 130 127 130 144 138 133 129 126 121 118 115 114 113 111 107 107 107 107 106 104 104 104 103 103 103 104 103 103 103
53 61 73 60 17 51 109 123 103 94 95 93 89 91 66 107 122 133 130 125 127 129 131 139 143 138 134 131 128 124 120 118 116 113 110 108 109 108 109 107 108 107 106 106 104 103 100 98 101
88 80 101 121 95 109 159 120 121 116 109 114 111 99 103 135 133 126 118 115 115 117 117 111 125 135 138 137 135 130 125 121 119 117 113 110 109 109 109 108 106 106 107 106 104 101 96 93 97
111 94 78 94 140 190 147 112 116 119 111 119 118 134 165 166 134 117 110 109 113 111 111 107 100 100 104 125 138 136 133 128 126 123 118 115 111 109 108 106 108 108 107 106 105 103 99 95 98
84 74 103 198 180 191 143 127 133 104 118 132 124 144 149 138 132 128 128 130 147 153 134 126 120 117 114 126 145 137 137 132 126 123 120 102 72 72 90 109 118 116 111 105 99 95 91 86 87
79 103 212 211 186 165 147 143 146 121 129 108 88 102 125 140 147 154 162 168 175 178 177 163 157 149 146 151 110 89 97 97 91 89 92 85 81 73 88 83 112 116 108 96 84 70 69 70 66
101 164 223 239 165 138 135 139 134 132 182 180 155 145 148 154 161 168 175 180 183 180 183 177 174 165 158 122 120 100 89 92 94 109 112 103 86 61 46 40 42 49 62 56 55 48 51 66 85
106 274 193 200 127 131 142 139 130 173 210 163 154 151 156 165 175 179 181 185 178 178 189 177 172 168 180 165 143 134 129 127 135 158 138 120 112 101 72 55 35 31 38 46 44 44 30 48 80
61 327 342 88 105 120 112 117 130 183 122 128 140 151 165 174 180 182 181 181 178 186 191 180 176 178 184 179 185 165 170 169 179 180 172 160 160 173 149 114 17 314 332 48 26 27 12 15 30
336 16 12 54 91 98 113 93 96 139 131 136 150 164 176 180 177 173 176 184 189 192 191 181 183 189 183 182 192 185 178 176 182 193 194 186 186 188 181 208 240 252 236 244 262 280 345 343 350
39 46 31 29 66 101 104 49 184 153 142 150 163 171 179 186 182 187 189 189 190 190 187 185 188 185 189 192 195 192 185 180 189 201 199 200 197 194 185 200 234 242 230 228 245 273 351 297 297
41 48 27 324 47 106 121 217 218 154 153 164 175 177 180 189 193 196 192 188 185 180 181 188 192 184 191 189 189 191 188 187 195 199 203 206 204 192 183 210 229 233 212 203 217 223 236 275 254
35 59 2 311 342 114 134 225 215 165 166 176 183 184 182 186 197 199 193 187 184 183 180 180 181 179 183 178 177 183 185 194 193 193 203 207 203 193 189 210 224 214 204 208 226 193 194 226 236
184 129 287 263 275 140 182 235 199 176 183 186 185 185 185 193 203 193 185 181 180 180 178 178 176 176 165 153 144 144 173 209 196 201 205 200 199 194 192 207 214 197 194 212 213 209 203 214 224
150 148 226 256 259 173 213 241 204 182 191 194 193 192 196 205 195 173 171 171 172 174 175 180 177 173 156 151 158 163 194 207 210 213 207 202 200 197 193 205 200 193 201 213 207 194 208 224 179
140 136 252 298 354 102 81 316 253 194 203 204 200 199 199 196 175 168 164 174 181 182 184 183 183 176 175 174 162 160 161 179 197 204 199 213 210 205 203 198 202 202 205 216 209 189 183 218 177
182 182 198 222 10 34 62 346 309 252 217 215 212 201 196 194 188 183 181 186 185 189 190 190 185 181 179 164 135 114 92 73 88 196 221 229 220 219 219 205 204 206 200 212 213 200 195 210 212
238 224 185 152 94 347 70 277 287 257 252 231 220 208 204 197 185 186 187 189 196 193 186 181 176 173 171 162 161 167 175 188 204 201 213 241 228 228 224 216 207 207 206 216 220 207 202 194 213
200 98 106 100 115 61 27 123 287 312 253 245 229 219 211 194 185 188 193 195 191 175 170 169 165 174 173 171 175 174 184 190 174 160 190 247 269 258 248 230 220 220 218 221 219 208 206 203 208
130 72 56 49 69 55 260 158 277 241 229 248 230 219 209 190 184 185 182 170 164 157 159 159 163 186 184 175 177 182 183 177 172 186 196 242 281 303 299 265 239 233 228 222 215 210 207 214 216
98 90 44 16 21 253 280 205 251 252 243 239 234 217 204 184 176 175 174 174 170 166 165 161 167 190 184 178 184 188 186 179 189 200 208 219 256 291 295 287 264 247 238 225 212 203 218 219 221
160 137 150 173 202 268 317 240 257 265 270 254 220 190 179 175 178 181 180 176 171 171 168 163 169 183 173 178 188 178 174 176 191 192 183 189 215 258 301 300 285 276 260 236 204 205 231 224 234
133 153 150 124 140 81 287 287 299 296 318 330 157 157 172 174 174 172 165 165 166 169 170 168 168 164 164 172 164 152 157 156 155 141 144 147 189 336 4 349 334 319 301 233 182 210 237 215 218
136 141 108 115 135 211 295 283 260 276 277 273 193 175 176 163 160 157 155 157 158 157 152 152 155 157 155 150 151 152 142 137 134 119 105 82 51 34 31 24 21 8 8 27 139 165 214 161 203
111 94 102 105 139 147 215 268 233 229 230 228 225 196 168 163 162 155 147 143 136 131 135 141 142 138 138 144 143 140 125 113 106 100 92 81 60 49 45 43 42 28 21 31 63 63 62 89 56
148 155 144 141 176 156 163 263 272 241 232 211 208 180 157 155 151 143 139 135 132 132 130 131 131 134 139 134 129 126 114 111 112 109 94 83 71 56 50 49 53 43 33 27 44 45 37 49 43